Location: Harwich
(41.7160°N, 69.9939°W)
Time: 21:49:07
(UTC+01:00)

Tiangong - Visible Passes

Search period start: 01 December 2023 00:00
Search period end: 11 December 2023 00:00
Orbit: 373 x 384 km, 41.5° (Epoch: 01 December)

Date Brightness Start Highest point End Pass type
(mag) Time Alt. Az. Time Alt. Az. Time Alt. Az.
01 Dec -1.5 22:43:53 10° W 22:47:00 55° SSW 22:50:05 10° ESE visible
02 Dec 0.6 00:21:21 10° WSW 00:23:17 15° SSW 00:23:40 15° SSW visible
02 Dec 0.0 23:19:08 10° W 23:21:47 25° SSW 23:24:26 10° SSE visible
04 Dec 0.8 22:52:35 10° WSW 22:54:41 16° SSW 22:56:46 10° SSE visible
